Regional Weather Roundup
Issued by NWS

Home | Current Version | Previous Version | Text Only | Print | Product List | Glossary Off
Versions: 1 2 3 4 5 6 7 8 9 10 11 12 13 14 15 16 17 18 19 20 21 22 23 24 25 26 27 28 29 30 31 32 33 34 35 36 37 38 39 40 41 42 43 44 45 46 47 48 49 50

000
ASUS43 KLMK 222310
RWRKY
KENTUCKY REGIONAL WEATHER ROUNDUP
NATIONAL WEATHER SERVICE LOUISVILLE KY
600 PM EST MON DEC 22 2014

NOTE "FAIR" INDICATES FEW OR NO CLOUDS BELOW 12,000 FEET
WITH NO SIGNIFICANT WEATHER AND/OR OBSTRUCTIONS TO VISIBILITY.

KYZ001>023-026-027-061>063-070>075-230000-
WESTERN AND SOUTH CENTRAL KENTUCKY

CITY           SKY/WX    TMP DP  RH WIND       PRES   REMARKS
PADUCAH        CLOUDY    53  50  89 S9        29.62S
HENDERSON      CLOUDY    52  45  76 SE10G16   29.65F
OWENSBORO      CLOUDY    53  47  80 SE12      29.69F
HOPKINSVILLE   CLOUDY    53  48  83 SE14      29.67F
BOWLING GREEN  CLOUDY    54  46  74 S13G21    29.74F
GLASGOW        CLOUDY    53  45  74 S6        29.75F
$$

KYZ024-025-028>034-038-045-046-053-230000-
NORTH CENTRAL KENTUCKY

CITY           SKY/WX    TMP DP  RH WIND       PRES   REMARKS
LOUISVILLE/SDF CLOUDY    52  42  69 E6        29.75F
LOUISVILLE/LOU CLOUDY    53  42  66 SE3       29.76F
FORT KNOX      CLOUDY    51  43  75 E6        29.73F
$$

KYZ035>037-039>044-047>052-055>060-089>105-230000-
NORTHEAST KENTUCKY

CITY           SKY/WX    TMP DP  RH WIND       PRES   REMARKS
LEXINGTON      CLOUDY    52  41  66 SE6       29.80S
COVINGTON      CLOUDY    49  37  63 E8        29.78F
FRANKFORT      CLOUDY    50  40  68 E7        29.77F
$$

KYZ054-064>069-076>088-106>120-230000-
SOUTHEAST KENTUCKY

CITY           SKY/WX    TMP DP  RH WIND       PRES   REMARKS
JACKSON        MOCLDY    53  39  59 CALM      29.83S
LONDON         LGT RAIN  54  44  69 S6        29.83S
SOMERSET       CLOUDY    52  45  76 S3        29.83S
MIDDLESBORO    CLOUDY    52  47  83 CALM      29.85S
MONTICELLO     CLOUDY    53  47  80 S6        29.83F
$$



USA.gov is the U.S. government's official web portal to all federal, state and local government web resources and services.